GW5874 Weather Reports


time (UTC)temp
C
wind
direction
speed
KPH
gust
KPH
rain 1hr
cm
rain 24hr
cm
rain mn
cm
humidity
%
barometer
mb
20260503192426 25 102 11.3 16.1 0.00 0.00 0.00 42 1014.6
20260503191921 26 202 12.9 16.1 0.00 0.00 0.00 39 1014.8
20260503191419 26 239 12.9 17.7 0.00 0.00 0.00 40 1015.0
20260503190915 25 253 6.4 8.0 0.00 0.00 0.00 45 1015.0
20260503190413 26 210 8.0 8.0 0.00 0.00 0.00 39 1015.0
20260503185909 25 252 0.0 1.6 0.00 0.00 0.00 44 1015.0
20260503185406 25 309 6.4 8.0 0.00 0.00 0.00 45 1015.4
20260503184905 25 218 14.5 17.7 0.00 0.00 0.00 40 1015.2
20260503184402 24 334 9.7 11.3 0.00 0.00 0.00 44 1015.3
20260503183858 25 220 11.3 16.1 0.00 0.00 0.00 38 1015.4
20260503183355 24 230 4.8 6.4 0.00 0.00 0.00 44 1015.3
20260503182852 24 61 8.0 12.9 0.00 0.00 0.00 41 1015.3
20260503182351 24 251 0.0 1.6 0.00 0.00 0.00 44 1015.6
20260503181847 24 188 19.3 24.1 0.00 0.00 0.00 41 1015.6
20260503181345 25 188 14.5 17.7 0.00 0.00 0.00 42 1015.8
20260503180841 24 277 3.2 4.8 0.00 0.00 0.00 46 1015.8
20260503180339 24 221 11.3 16.1 0.00 0.00 0.00 45 1015.9
20260503175835 23 237 6.4 8.0 0.00 0.00 0.00 44 1016.1
20260503175334 24 228 14.5 16.1 0.00 0.00 0.00 42 1016.3
20260503174834 23 239 6.4 6.4 0.00 0.00 0.00 46 1016.3
20260503174334 23 270 3.2 4.8 0.00 0.00 0.00 43 1016.3
20260503173834 23 231 9.7 12.9 0.00 0.00 0.00 45 1016.4
20260503173330 23 233 4.8 6.4 0.00 0.00 0.00 45 1016.5
20260503172827 23 229 6.4 8.0 0.00 0.00 0.00 47 1016.7
20260503172325 23 200 8.0 11.3 0.00 0.00 0.00 42 1016.6
20260503171820 23 240 4.8 6.4 0.00 0.00 0.00 45 1016.6
20260503171318 23 206 1.6 4.8 0.00 0.00 0.00 46 1016.6
20260503170815 23 318 3.2 4.8 0.00 0.00 0.00 48 1016.7
20260503170311 23 229 6.4 8.0 0.00 0.00 0.00 44 1016.8
20260503150704 18 209 17.7 19.3 0.00 0.00 0.00 49 1018.0
20260503150200 18 212 1.6 4.8 0.00 0.00 0.00 53 1018.1
20260503140124 13 195 6.4 8.0 0.00 0.00 0.00 66 1018.6
20260503131053 8 123 0.0 0.0 0.00 0.00 0.00 99 1018.6
20260503130550 7 178 0.0 0.0 0.00 0.00 0.00 99 1018.8
20260503110441 1 280 0.0 0.0 0.00 0.00 0.00 98 1018.5
20260503090332 1 263 0.0 0.0 0.00 0.00 0.00 98 1018.9
20260503081300 1 302 0.0 0.0 0.00 0.00 0.00 97 1019.0
20260503080755 1 302 0.0 0.0 0.00 0.00 0.00 97 1019.3
20260503080253 2 302 0.0 0.0 0.00 0.00 0.00 97 1019.2
20260503072729 2 302 0.0 0.0 0.00 0.00 0.00 96 1019.5
20260503072226 2 302 0.0 0.0 0.00 0.00 0.00 96 1019.7
20260503071723 2 302 0.0 0.0 0.00 0.00 0.00 96 1019.7
20260503071220 2 302 0.0 0.0 0.00 0.00 0.00 96 1019.7
20260503070716 2 302 0.0 0.0 0.00 0.00 0.00 96 1019.6
20260503070215 2 302 0.0 0.0 0.00 0.00 0.00 96 1019.8
20260503060139 3 302 0.0 0.0 0.00 0.00 0.00 95 1020.2
20260503054626 3 302 0.0 0.0 0.00 0.00 0.00 95 1020.3
20260503054123 3 302 0.0 0.0 0.00 0.00 0.00 94 1020.3
20260503053621 3 302 0.0 0.0 0.00 0.00 0.00 94 1020.4
20260503053119 3 302 0.0 0.0 0.00 0.00 0.00 94 1020.2
20260503052615 3 302 0.0 0.0 0.00 0.00 0.00 94 1020.3
20260503052112 3 302 0.0 0.0 0.00 0.00 0.00 94 1020.4
20260503051607 3 302 0.0 0.0 0.00 0.00 0.00 94 1020.3
20260503051105 3 302 0.0 0.0 0.00 0.00 0.00 93 1020.5
20260503050601 3 302 0.0 0.0 0.00 0.00 0.00 93 1020.3
20260503050058 3 302 0.0 0.0 0.00 0.00 0.00 93 1020.3
20260503045555 4 303 0.0 0.0 0.00 0.00 0.00 93 1020.3
20260503045052 4 303 0.0 0.0 0.00 0.00 0.00 93 1020.2
20260503044549 4 303 0.0 0.0 0.00 0.00 0.00 92 1020.4
20260503044047 3 302 0.0 0.0 0.00 0.00 0.00 92 1020.4
20260503043543 4 302 0.0 0.0 0.00 0.00 0.00 92 1020.3
20260503043040 4 302 0.0 0.0 0.00 0.00 0.00 91 1020.2
20260503042537 5 302 0.0 0.0 0.00 0.00 0.00 91 1020.1
20260503042033 5 302 0.0 0.0 0.00 0.00 0.00 91 1020.2
20260503041530 5 302 0.0 0.0 0.00 0.00 0.00 90 1020.1
20260503041028 5 302 0.0 0.0 0.00 0.00 0.00 90 1020.1
20260503040525 5 302 0.0 0.0 0.00 0.00 0.00 90 1020.2
20260503040022 5 303 0.0 0.0 0.00 0.00 0.00 89 1020.0
20260503035519 5 302 0.0 0.0 0.00 0.00 0.00 89 1019.9
20260503035016 5 302 0.0 0.0 0.00 0.00 0.00 88 1020.1
20260503034513 5 302 0.0 0.0 0.00 0.00 0.00 88 1020.3
20260503034010 5 302 0.0 0.0 0.00 0.00 0.00 88 1020.3
20260503033507 5 302 0.0 0.0 0.00 0.00 0.00 88 1020.4
20260503033005 5 302 0.0 0.0 0.00 0.00 0.00 87 1020.4
20260503032504 5 302 0.0 0.0 0.00 0.00 0.00 87 1020.2
20260503032001 6 302 0.0 0.0 0.00 0.00 0.00 86 1020.1
20260503031459 6 302 0.0 0.0 0.00 0.00 0.00 85 1020.1
20260503030955 6 302 0.0 0.0 0.00 0.00 0.00 85 1020.1
20260503030451 6 302 0.0 0.0 0.00 0.00 0.00 85 1020.0
20260503025949 6 302 0.0 0.0 0.00 0.00 0.00 85 1020.0
20260503025445 6 303 0.0 0.0 0.00 0.00 0.00 84 1020.1
20260503024943 6 303 0.0 0.0 0.00 0.00 0.00 83 1019.8
20260503024439 7 303 0.0 0.0 0.00 0.00 0.00 83 1020.1
20260503023937 7 302 0.0 0.0 0.00 0.00 0.00 82 1020.0
20260503023434 7 302 0.0 0.0 0.00 0.00 0.00 81 1019.8
20260503022930 7 303 0.0 0.0 0.00 0.00 0.00 80 1020.0
20260503022425 7 303 0.0 0.0 0.00 0.00 0.00 80 1019.9
20260503021921 7 303 0.0 0.0 0.00 0.00 0.00 79 1019.8
20260503021418 8 303 0.0 0.0 0.00 0.00 0.00 78 1019.7
20260503020915 8 303 0.0 0.0 0.00 0.00 0.00 77 1019.6
20260503020413 8 303 0.0 0.0 0.00 0.00 0.00 76 1019.5
20260503015909 8 303 0.0 0.0 0.00 0.00 0.00 75 1019.5
20260503015406 8 303 0.0 0.0 0.00 0.00 0.00 73 1019.6
20260503014902 9 303 0.0 0.0 0.00 0.00 0.00 73 1019.7
20260503014359 9 303 0.0 0.0 0.00 0.00 0.00 71 1019.6
20260503013857 10 303 0.0 0.0 0.00 0.00 0.00 71 1019.5
20260503013354 10 303 0.0 0.0 0.00 0.00 0.00 69 1019.4
20260503012851 10 303 0.0 0.0 0.00 0.00 0.00 67 1019.4
20260503012349 11 303 0.0 0.0 0.00 0.00 0.00 67 1019.6
20260503011845 11 303 0.0 0.0 0.00 0.00 0.00 62 1019.3
20260503011342 11 303 0.0 0.0 0.00 0.00 0.00 62 1019.3
20260503010839 12 303 0.0 0.0 0.00 0.00 0.00 61 1019.2
20260503010336 12 303 0.0 0.0 0.00 0.00 0.00 56 1019.2
20260503005833 12 303 0.0 0.0 0.00 0.00 0.00 57 1019.2
20260503005331 13 303 0.0 0.0 0.00 0.00 0.00 57 1019.4
20260503004826 13 303 0.0 0.0 0.00 0.00 0.00 53 1019.3
20260503004324 14 301 0.0 0.0 0.00 0.00 0.00 48 1019.2
20260503003821 14 297 0.0 0.0 0.00 0.00 0.00 45 1019.3
20260503003318 15 296 0.0 0.0 0.00 0.00 0.00 45 1019.0
20260503002815 15 295 0.0 0.0 0.00 0.00 0.00 44 1019.2
20260503002312 15 285 0.0 0.0 0.00 0.00 0.00 44 1019.2
20260503001809 15 309 0.0 0.0 0.00 0.00 0.00 42 1018.9
20260503001305 16 295 0.0 0.0 0.00 0.00 0.00 42 1019.3
20260503000802 16 282 0.0 0.0 0.00 0.00 0.00 41 1019.0
20260503000259 17 292 0.0 0.0 0.00 0.00 0.00 41 1019.3
20260502235756 17 279 1.6 1.6 0.00 0.00 0.00 38 1018.9
20260502235254 17 302 1.6 1.6 0.00 0.00 0.00 39 1019.3
20260502234750 17 275 1.6 1.6 0.00 0.00 0.00 38 1019.2
20260502234248 18 324 1.6 1.6 0.00 0.00 0.00 35 1019.4
20260502233743 18 271 3.2 4.8 0.00 0.00 0.00 32 1019.3
20260502233241 18 227 3.2 4.8 0.00 0.00 0.00 32 1019.2
20260502232736 18 291 4.8 6.4 0.00 0.00 0.00 35 1019.5
20260502232233 19 271 1.6 4.8 0.00 0.00 0.00 32 1019.3
20260502231730 18 303 1.6 1.6 0.00 0.00 0.00 35 1019.3
20260502231228 19 299 3.2 6.4 0.00 0.00 0.00 36 1019.4
20260502230727 19 286 1.6 1.6 0.00 0.00 0.00 34 1019.4
20260502230224 20 283 3.2 6.4 0.00 0.00 0.00 32 1019.4
20260502225720 20 278 3.2 4.8 0.00 0.00 0.00 30 1019.5
20260502225218 19 274 1.6 1.6 0.00 0.00 0.00 31 1019.4
20260502224713 20 109 4.8 6.4 0.00 0.00 0.00 36 1019.4
20260502224210 20 4 3.2 4.8 0.00 0.00 0.00 36 1019.3
20260502223708 20 269 3.2 4.8 0.00 0.00 0.00 34 1019.4
20260502223206 20 267 3.2 6.4 0.00 0.00 0.00 34 1019.4
20260502222703 20 274 6.4 6.4 0.00 0.00 0.00 33 1019.3
20260502222200 20 81 0.0 1.6 0.00 0.00 0.00 37 1019.4
20260502221655 19 277 3.2 4.8 0.00 0.00 0.00 35 1019.3
20260502221153 19 274 1.6 1.6 0.00 0.00 0.00 36 1019.4
20260502220649 20 272 4.8 6.4 0.00 0.00 0.00 34 1019.3
20260502220145 19 247 4.8 6.4 0.00 0.00 0.00 35 1019.4
20260502215643 20 265 4.8 4.8 0.00 0.00 0.00 34 1019.5
20260502215139 19 267 0.0 0.0 0.00 0.00 0.00 37 1019.4
20260502214637 19 274 3.2 8.0 0.00 0.00 0.00 33 1019.4
20260502214133 20 279 6.4 6.4 0.00 0.00 0.00 34 1019.5
20260502213631 18 301 4.8 6.4 0.00 0.00 0.00 37 1019.5
20260502213128 20 273 8.0 8.0 0.00 0.00 0.00 35 1019.7
20260502212627 19 266 4.8 6.4 0.00 0.00 0.00 34 1019.6
20260502212125 20 292 4.8 6.4 0.00 0.00 0.00 39 1019.7
20260502211620 19 295 1.6 4.8 0.00 0.00 0.00 39 1019.7
20260502211117 19 45 6.4 6.4 0.00 0.00 0.00 35 1019.6
20260502210615 19 212 4.8 6.4 0.00 0.00 0.00 35 1019.8
20260502210111 20 272 8.0 11.3 0.00 0.00 0.00 35 1019.7
20260502205608 19 317 3.2 4.8 0.00 0.00 0.00 39 1019.6
20260502205105 20 311 8.0 8.0 0.00 0.00 0.00 34 1019.6
20260502204601 20 307 4.8 8.0 0.00 0.00 0.00 40 1020.2
20260502204100 19 82 1.6 1.6 0.00 0.00 0.00 38 1020.1
20260502203556 18 289 4.8 6.4 0.00 0.00 0.00 35 1020.1
20260502203054 18 275 8.0 11.3 0.00 0.00 0.00 34 1020.1
20260502202549 18 275 6.4 6.4 0.00 0.00 0.00 38 1020.2
20260502202048 18 246 6.4 6.4 0.00 0.00 0.00 36 1020.2
20260502201543 18 264 8.0 11.3 0.00 0.00 0.00 34 1020.3
20260502201040 19 258 3.2 4.8 0.00 0.00 0.00 37 1020.3
20260502200536 18 270 3.2 4.8 0.00 0.00 0.00 41 1020.2
20260502200034 20 319 6.4 8.0 0.00 0.00 0.00 35 1020.3
20260502195531 19 178 0.0 1.6 0.00 0.00 0.00 42 1020.4
20260502195027 18 179 0.0 1.6 0.00 0.00 0.00 37 1020.3
20260502194524 18 298 6.4 8.0 0.00 0.00 0.00 38 1020.4
20260502194020 18 262 6.4 6.4 0.00 0.00 0.00 43 1020.4
20260502193518 18 278 6.4 8.0 0.00 0.00 0.00 37 1020.5
20260502193014 18 282 6.4 6.4 0.00 0.00 0.00 38 1020.3